GW5804 Weather Reports


Display with metric or nautical units.
time (UTC)temp
F
wind
direction
speed
MPH
gust
MPH
rain 1hr
in
rain 24hr
in
rain mn
in
humidity
%
barometer
mb
20260507060430 57 123 4.0 7.0 0.00 0.43 0.43 97 1012.7
20260507055927 57 142 4.0 6.0 0.07 0.43 0.43 97 1012.6
20260507055422 57 70 4.0 7.0 0.07 0.43 0.43 97 1012.7
20260507054920 57 156 4.0 7.0 0.00 0.42 0.42 97 1012.6
20260507054415 57 155 3.0 3.0 0.07 0.42 0.42 97 1012.8
20260507053913 57 140 3.0 4.0 0.07 0.42 0.42 97 1012.7
20260507053410 57 106 5.0 6.0 0.00 0.41 0.41 97 1012.5
20260507052909 57 186 5.0 7.0 0.00 0.41 0.41 97 1012.5
20260507052406 57 130 3.0 4.0 0.00 0.41 0.41 97 1012.6
20260507051903 57 118 4.0 6.0 0.00 0.41 0.41 97 1012.7
20260507051401 57 78 3.0 4.0 0.00 0.41 0.41 97 1012.5
20260507050857 57 148 1.0 2.0 0.00 0.41 0.41 97 1012.4
20260507050354 57 305 0.0 0.0 0.00 0.41 0.41 97 1012.4
20260507045851 57 85 0.0 0.0 0.05 0.41 0.41 97 1012.4
20260507045347 57 22 0.0 0.0 0.05 0.41 0.41 97 1012.4
20260507044845 57 88 1.0 1.0 0.31 0.40 0.40 97 1012.5
20260507044341 57 144 3.0 3.0 0.31 0.40 0.40 97 1012.3
20260507043837 57 87 2.0 3.0 0.12 0.36 0.36 97 1012.3
20260507043334 57 121 2.0 3.0 0.12 0.35 0.35 97 1012.2
20260507042830 57 128 4.0 7.0 0.07 0.34 0.34 96 1011.8
20260507042326 57 146 4.0 7.0 0.05 0.33 0.33 96 1012.1
20260507041823 57 192 3.0 4.0 0.12 0.33 0.33 96 1011.9
20260507041319 57 170 2.0 4.0 0.07 0.32 0.32 96 1011.9
20260507040816 57 89 6.0 8.0 0.12 0.31 0.31 96 1011.9
20260507040312 57 140 6.0 8.0 0.12 0.31 0.31 96 1011.9
20260507035808 57 114 5.0 9.0 0.00 0.29 0.29 96 1011.7
20260507035306 57 130 5.0 7.0 0.07 0.29 0.29 96 1011.8
20260507034802 57 175 4.0 7.0 0.07 0.29 0.29 96 1011.7
20260507034258 57 172 6.0 8.0 0.05 0.28 0.28 96 1011.9
20260507033757 57 173 2.0 3.0 0.05 0.28 0.28 95 1011.9
20260507033254 57 155 4.0 6.0 0.00 0.27 0.27 95 1011.8
20260507032751 57 220 4.0 7.0 0.00 0.27 0.27 95 1011.9
20260507032247 58 175 0.0 1.0 0.00 0.27 0.27 95 1012.1
20260507031743 58 183 1.0 2.0 0.07 0.27 0.27 94 1012.1
20260507031241 58 136 2.0 3.0 0.61 0.27 0.27 94 1012.1
20260507030737 58 177 1.0 1.0 0.97 0.27 0.27 94 1012.1
20260507030235 58 211 0.0 1.0 0.97 0.19 0.19 93 1012.2
20260507025732 58 322 2.0 6.0 0.61 0.10 0.10 92 1012.1
20260507025229 58 268 3.0 4.0 0.19 0.03 0.03 91 1011.9
20260507024727 58 290 1.0 2.0 0.00 0.00 0.00 91 1011.9
20260507024224 58 295 0.0 0.0 0.00 0.00 0.00 91 1011.9
20260507023720 58 266 0.0 0.0 0.00 0.00 0.00 91 1011.8
20260507023217 58 237 1.0 2.0 0.00 0.00 0.00 91 1011.5
20260507022714 58 85 2.0 3.0 0.00 0.00 0.00 90 1011.5
20260507022210 58 279 0.0 0.0 0.00 0.00 0.00 90 1011.5
20260507021706 58 185 2.0 2.0 0.00 0.00 0.00 90 1011.7
20260507021201 59 165 2.0 3.0 0.00 0.00 0.00 89 1011.6
20260507020701 59 130 2.0 3.0 0.00 0.00 0.00 89 1011.7
20260507020156 59 129 5.0 7.0 0.00 0.00 0.00 88 1011.6
20260507015654 59 168 3.0 4.0 0.00 0.00 0.00 87 1011.5
20260507015151 59 200 4.0 7.0 0.00 0.00 0.00 86 1011.8
20260507014648 59 170 3.0 4.0 0.00 0.00 0.00 86 1011.8
20260507014144 59 185 2.0 2.0 0.00 0.00 0.00 85 1011.7
20260507013641 59 218 6.0 10.0 0.00 0.00 0.00 84 1011.7
20260507013138 59 159 1.0 2.0 0.00 0.00 0.00 84 1011.7
20260507012636 60 151 4.0 6.0 0.00 0.00 0.00 83 1011.7
20260507012130 60 167 2.0 3.0 0.00 0.00 0.00 83 1011.4
20260507011629 60 206 5.0 8.0 0.00 0.00 0.00 82 1011.4
20260507011125 60 142 2.0 3.0 0.00 0.00 0.00 82 1011.5
20260507010620 60 142 2.0 3.0 0.00 0.00 0.00 82 1011.5
20260507010116 60 177 5.0 7.0 0.00 0.00 0.00 81 1011.4
20260507005614 60 231 2.0 3.0 0.00 0.00 0.00 80 1011.4
20260507005109 60 163 4.0 6.0 0.00 0.00 0.00 81 1011.6
20260507004607 60 219 4.0 6.0 0.00 0.00 0.00 80 1011.4
20260507004104 60 220 2.0 4.0 0.00 0.00 0.00 80 1011.6
20260507003600 60 148 5.0 8.0 0.00 0.00 0.00 80 1011.6
20260507003055 60 194 3.0 6.0 0.00 0.00 0.00 79 1011.8
20260507002552 60 210 4.0 6.0 0.00 0.00 0.00 78 1011.7
20260507002048 60 235 6.0 10.0 0.00 0.00 0.00 78 1011.7
20260507001544 60 213 3.0 4.0 0.00 0.00 0.00 77 1011.8
20260507001042 60 198 4.0 6.0 0.00 0.00 0.00 77 1011.8
20260507000538 60 223 5.0 7.0 0.00 0.00 0.00 78 1011.8
20260507000033 60 223 6.0 7.0 0.00 0.00 0.00 78 1011.7
20260506235531 60 224 4.0 6.0 0.00 0.00 0.00 79 1011.8
20260506235027 60 170 6.0 8.0 0.00 0.00 0.00 79 1011.7
20260506234525 60 193 3.0 7.0 0.00 0.00 0.00 79 1012.2
20260506234022 60 165 9.0 11.0 0.00 0.00 0.00 79 1012.1
20260506233518 60 152 10.0 14.0 0.00 0.00 0.00 78 1012.1
20260506233015 60 134 9.0 14.0 0.00 0.00 0.00 78 1011.9
20260506232511 60 84 8.0 10.0 0.00 0.00 0.00 79 1012.3
20260506232007 60 139 4.0 4.0 0.00 0.00 0.00 79 1012.5
20260506231505 60 209 4.0 7.0 0.00 0.00 0.00 79 1012.2
20260506231002 60 194 6.0 9.0 0.00 0.00 0.00 79 1012.2
20260506230458 60 200 8.0 10.0 0.00 0.00 0.00 79 1012.2
20260506225955 60 171 5.0 11.0 0.00 0.39 0.39 78 1012.1
20260506225452 60 155 5.0 9.0 0.00 0.39 0.39 78 1012.2
20260506224949 60 226 3.0 7.0 0.00 0.39 0.39 78 1012.1
20260506224446 60 65 5.0 7.0 0.00 0.39 0.39 79 1012.2
20260506223942 60 155 5.0 10.0 0.00 0.39 0.39 80 1012.1
20260506223438 60 110 4.0 6.0 0.00 0.39 0.39 80 1012.3
20260506222936 60 187 10.0 13.0 0.00 0.39 0.39 79 1012.1
20260506222432 60 163 8.0 9.0 0.00 0.39 0.39 79 1012.2
20260506221929 60 170 6.0 9.0 0.00 0.39 0.39 79 1012.2
20260506221426 60 151 5.0 7.0 0.00 0.39 0.39 78 1012.2
20260506220924 60 111 5.0 7.0 0.00 0.39 0.39 78 1012.1
20260506220419 60 149 3.0 4.0 0.00 0.39 0.39 78 1012.1
20260506215916 60 150 5.0 8.0 0.00 0.39 0.39 78 1011.9
20260506215412 60 138 6.0 10.0 0.00 0.39 0.39 77 1011.9
20260506214908 60 179 8.0 13.0 0.00 0.39 0.39 76 1011.9
20260506214405 60 180 6.0 11.0 0.00 0.39 0.39 78 1012.1
20260506213903 60 158 5.0 9.0 0.00 0.39 0.39 80 1012.1
20260506213400 60 111 6.0 9.0 0.00 0.39 0.39 79 1011.9
20260506212857 60 212 9.0 11.0 0.00 0.39 0.39 80 1012.1
20260506212353 60 208 8.0 10.0 0.00 0.39 0.39 80 1011.7
20260506211848 60 163 5.0 7.0 0.00 0.39 0.39 80 1011.9
20260506211344 60 197 5.0 6.0 0.00 0.39 0.39 81 1011.8
20260506210842 59 130 6.0 8.0 0.00 0.39 0.39 81 1011.9
20260506210338 59 121 9.0 11.0 0.00 0.39 0.39 82 1011.7
20260506205836 59 135 5.0 7.0 0.00 0.39 0.39 82 1011.7
20260506205331 59 188 5.0 11.0 0.00 0.39 0.39 82 1011.7
20260506204828 59 189 7.0 10.0 0.00 0.39 0.39 83 1011.8
20260506204326 59 185 6.0 14.0 0.00 0.39 0.39 82 1011.5
20260506203823 59 127 7.0 11.0 0.00 0.39 0.39 82 1011.6
20260506203320 59 170 8.0 14.0 0.00 0.39 0.39 83 1011.7
20260506202817 60 197 11.0 14.0 0.00 0.39 0.39 82 1011.7
20260506202314 59 193 11.0 13.0 0.00 0.39 0.39 82 1011.6
20260506201810 60 76 4.0 4.0 0.00 0.39 0.39 83 1011.7
20260506201308 60 151 7.0 11.0 0.00 0.39 0.39 82 1011.5
20260506200805 60 135 9.0 16.0 0.00 0.39 0.39 82 1011.4
20260506200301 60 175 5.0 8.0 0.00 0.39 0.39 82 1011.3
20260506195757 60 160 9.0 16.0 0.00 0.39 0.39 82 1011.6
20260506195254 60 154 6.0 10.0 0.00 0.39 0.39 83 1011.4
20260506194751 60 181 9.0 11.0 0.00 0.39 0.39 83 1011.1
20260506194247 60 71 6.0 8.0 0.00 0.39 0.39 83 1011.3
20260506193746 60 187 6.0 8.0 0.00 0.39 0.39 84 1011.2
20260506193242 60 203 6.0 9.0 0.00 0.39 0.39 84 1011.1
20260506192738 60 171 8.0 14.0 0.00 0.39 0.39 84 1011.2
20260506192235 60 72 10.0 15.0 0.00 0.39 0.39 85 1011.2
20260506191732 60 153 8.0 10.0 0.00 0.39 0.39 85 1011.1
20260506191228 60 162 6.0 9.0 0.00 0.39 0.39 85 1011.3
20260506190726 60 211 5.0 7.0 0.00 0.39 0.39 86 1011.1
20260506190222 60 144 6.0 8.0 0.00 0.39 0.39 85 1010.9
20260506185719 61 199 7.0 11.0 0.00 0.39 0.39 86 1010.8
20260506185215 61 234 7.0 10.0 0.00 0.39 0.39 85 1010.8
20260506184713 61 170 11.0 17.0 0.00 0.39 0.39 85 1010.7
20260506184210 60 104 6.0 8.0 0.00 0.39 0.39 86 1010.6
20260506183707 60 206 6.0 8.0 0.00 0.39 0.39 87 1010.8
20260506183203 60 107 11.0 16.0 0.00 0.39 0.39 87 1010.9
20260506182700 60 109 7.0 10.0 0.00 0.39 0.39 87 1010.8
20260506182157 60 180 9.0 10.0 0.00 0.39 0.39 87 1010.6
20260506181655 60 175 7.0 17.0 0.00 0.39 0.39 87 1010.5
20260506181152 60 158 7.0 11.0 0.00 0.39 0.39 88 1010.5
20260506180649 60 210 9.0 9.0 0.00 0.39 0.39 88 1010.4
20260506180145 60 153 6.0 9.0 0.00 0.39 0.39 89 1010.5
20260506175642 61 134 4.0 9.0 0.00 0.39 0.39 89 1010.4
20260506175139 60 115 5.0 8.0 0.00 0.39 0.39 89 1010.4
20260506174637 60 175 8.0 14.0 0.00 0.39 0.39 89 1010.6
20260506174134 60 158 9.0 11.0 0.00 0.39 0.39 89 1010.3
20260506173631 61 105 7.0 11.0 0.00 0.39 0.39 89 1010.6
20260506173128 61 148 6.0 9.0 0.00 0.39 0.39 89 1010.5
20260506172625 61 127 8.0 10.0 0.00 0.39 0.39 90 1010.8
20260506172121 60 157 7.0 11.0 0.00 0.39 0.39 90 1010.9
20260506171619 60 146 5.0 7.0 0.00 0.39 0.39 91 1010.8
20260506171117 60 118 9.0 16.0 0.00 0.39 0.39 91 1010.8
20260506170615 60 255 6.0 8.0 0.00 0.39 0.39 91 1010.6
20260506170111 60 156 5.0 9.0 0.00 0.39 0.39 91 1010.6
20260506165609 60 232 8.0 11.0 0.00 0.39 0.39 92 1010.7
20260506165105 60 179 5.0 8.0 0.00 0.39 0.39 92 1010.8
20260506164603 60 154 5.0 6.0 0.00 0.39 0.39 92 1010.6
20260506164100 60 235 4.0 4.0 0.00 0.39 0.39 91 1010.9
20260506163555 60 151 2.0 3.0 0.00 0.39 0.39 91 1011.1
20260506163051 60 221 5.0 7.0 0.00 0.39 0.39 91 1010.9
20260506162548 60 167 5.0 8.0 0.00 0.39 0.39 91 1010.7
20260506162045 61 94 6.0 13.0 0.00 0.39 0.39 92 1010.9
20260506161543 61 240 4.0 4.0 0.00 0.39 0.39 91 1010.8
20260506161039 61 144 2.0 4.0 0.00 0.39 0.39 91 1010.9
20260506160537 61 164 6.0 8.0 0.00 0.39 0.39 91 1011.1
20260506160034 61 178 8.0 11.0 0.00 0.39 0.39 90 1010.9
20260506155532 61 206 5.0 6.0 0.00 0.39 0.39 90 1011.0
20260506153703 61 182 4.0 6.0 0.00 0.39 0.39 90 1011.1
20260506153201 62 137 6.0 9.0 0.00 0.39 0.39 90 1011.0
20260506152657 61 218 3.0 4.0 0.00 0.39 0.39 90 1011.2
20260506152155 61 141 5.0 8.0 0.00 0.39 0.39 91 1011.3
20260506151654 61 176 6.0 9.0 0.00 0.39 0.39 91 1011.4
20260506151150 61 107 4.0 6.0 0.00 0.39 0.39 90 1011.2
20260506150647 61 142 4.0 6.0 0.00 0.39 0.39 90 1011.3
20260506150144 61 190 8.0 10.0 0.00 0.39 0.39 90 1011.3
20260506145640 61 198 7.0 10.0 0.00 0.39 0.39 91 1011.3
20260506145137 61 132 6.0 11.0 0.00 0.39 0.39 91 1011.3
20260506144635 61 228 14.0 17.0 0.00 0.39 0.39 91 1011.2
20260506144131 61 30 6.0 9.0 0.00 0.39 0.39 92 1011.4
20260506143629 60 180 8.0 11.0 0.00 0.39 0.39 93 1011.2
20260506143127 60 149 3.0 4.0 0.00 0.39 0.39 94 1011.4
20260506142625 60 95 4.0 9.0 0.00 0.39 0.39 94 1011.4
20260506142123 60 133 6.0 7.0 0.00 0.39 0.39 94 1011.4
20260506141620 60 118 4.0 7.0 0.00 0.39 0.39 95 1011.6
20260506141119 60 158 8.0 13.0 0.00 0.39 0.39 95 1011.5
20260506140616 60 127 6.0 9.0 0.00 0.39 0.39 96 1011.8
20260506140113 60 164 8.0 10.0 0.00 0.39 0.39 96 1011.6
20260506135610 60 153 4.0 6.0 0.00 0.39 0.39 96 1011.6
20260506135106 60 238 3.0 7.0 0.00 0.39 0.39 96 1011.8
20260506134602 60 131 3.0 6.0 0.00 0.39 0.39 96 1011.6
20260506134058 59 217 4.0 6.0 0.00 0.39 0.39 96 1011.7
20260506133555 59 105 5.0 7.0 0.00 0.39 0.39 96 1011.8
20260506133053 59 189 4.0 6.0 0.00 0.39 0.39 97 1011.8
20260506132550 59 140 5.0 6.0 0.00 0.39 0.39 97 1012.1
20260506132047 59 150 5.0 7.0 0.00 0.39 0.39 96 1012.2
20260506131544 59 188 5.0 7.0 0.00 0.39 0.39 97 1012.2
20260506131040 59 167 4.0 7.0 0.00 0.39 0.39 97 1012.4
20260506130537 60 177 5.0 6.0 0.00 0.39 0.39 97 1012.1
20260506130035 60 231 6.0 7.0 0.00 0.39 0.39 97 1012.1
20260506125533 60 135 2.0 3.0 0.00 0.39 0.39 97 1012.2
20260506125031 59 182 2.0 2.0 0.00 0.39 0.39 97 1012.2
20260506124528 59 178 3.0 7.0 0.00 0.39 0.39 97 1012.1
20260506124026 59 159 7.0 10.0 0.00 0.39 0.39 97 1012.5
20260506123523 59 244 2.0 2.0 0.00 0.39 0.39 97 1012.1
20260506123021 59 130 2.0 3.0 0.00 0.39 0.39 97 1012.3
20260506122518 59 186 3.0 4.0 0.00 0.39 0.39 97 1012.2
20260506122016 59 165 2.0 6.0 0.00 0.39 0.39 96 1012.1
20260506121513 59 247 2.0 3.0 0.00 0.39 0.39 96 1012.2
20260506121009 59 214 4.0 8.0 0.00 0.39 0.39 96 1012.2
20260506120508 59 236 3.0 3.0 0.00 0.39 0.39 96 1012.3
20260506120005 58 151 3.0 3.0 0.00 0.39 0.39 97 1012.2
20260506115502 58 255 0.0 0.0 0.00 0.39 0.39 96 1012.4
20260506115000 58 258 0.0 0.0 0.00 0.39 0.39 96 1012.4
20260506114457 58 148 3.0 4.0 0.00 0.39 0.39 96 1012.2
20260506113956 58 177 1.0 1.0 0.00 0.39 0.39 96 1012.4
20260506113453 58 163 2.0 3.0 0.00 0.39 0.39 96 1012.3
20260506112950 57 204 3.0 3.0 0.00 0.39 0.39 96 1012.3
20260506112447 57 238 2.0 3.0 0.00 0.39 0.39 96 1012.4
20260506111944 57 200 0.0 1.0 0.00 0.39 0.39 96 1012.4
20260506111443 57 259 0.0 0.0 0.00 0.39 0.39 96 1012.7
20260506110939 56 259 0.0 0.0 0.00 0.39 0.39 96 1012.6
20260506110437 56 251 0.0 0.0 0.00 0.39 0.39 96 1012.7
20260506105933 56 258 0.0 0.0 0.00 0.39 0.39 96 1012.7
20260506105430 56 146 0.0 0.0 0.00 0.39 0.39 96 1012.8
20260506104927 56 114 1.0 2.0 0.00 0.39 0.39 95 1012.6
20260506104425 56 78 1.0 2.0 0.00 0.39 0.39 95 1012.7
20260506103923 56 241 0.0 0.0 0.00 0.39 0.39 95 1012.7
20260506103420 56 133 0.0 1.0 0.00 0.39 0.39 95 1012.9
20260506102917 56 151 3.0 3.0 0.00 0.39 0.39 95 1012.9
20260506102415 56 110 3.0 4.0 0.00 0.39 0.39 95 1012.7
20260506101912 56 101 3.0 6.0 0.00 0.39 0.39 95 1012.9
20260506101408 56 130 3.0 4.0 0.00 0.39 0.39 95 1013.0
20260506100906 56 130 2.0 3.0 0.00 0.39 0.39 95 1012.9
20260506100404 56 174 5.0 8.0 0.05 0.39 0.39 95 1013.0
20260506095902 56 168 5.0 6.0 0.05 0.39 0.39 95 1012.9
20260506095400 56 112 3.0 4.0 0.00 0.38 0.38 95 1012.9
20260506094856 56 203 1.0 2.0 0.00 0.38 0.38 95 1012.8
20260506094355 55 125 3.0 6.0 0.00 0.38 0.38 96 1012.9
20260506093852 55 139 4.0 4.0 0.07 0.38 0.38 95 1012.8
20260506093350 55 109 1.0 2.0 0.07 0.38 0.38 95 1012.9
20260506092847 55 199 2.0 2.0 0.05 0.37 0.37 95 1013.0
20260506092345 55 109 3.0 4.0 0.05 0.37 0.37 95 1013.1
20260506091841 55 167 2.0 3.0 0.07 0.36 0.36 95 1013.1
20260506091339 55 120 2.0 4.0 0.19 0.36 0.36 95 1012.9
20260506090836 55 112 2.0 2.0 0.12 0.35 0.35 95 1013.2
20260506090334 56 110 4.0 4.0 0.12 0.33 0.33 95 1013.0
20260506085830 56 113 3.0 4.0 0.19 0.33 0.33 95 1013.0
20260506085326 56 114 4.0 4.0 0.19 0.32 0.32 95 1013.1
20260506084823 55 178 4.0 6.0 0.05 0.30 0.30 95 1013.3
20260506084320 55 155 3.0 6.0 0.12 0.29 0.29 94 1013.0
20260506083817 55 148 3.0 4.0 0.12 0.29 0.29 94 1013.1
20260506083314 55 181 3.0 4.0 0.07 0.27 0.27 94 1013.1
20260506082812 55 169 3.0 6.0 0.12 0.27 0.27 94 1012.9
20260506082308 55 148 5.0 7.0 0.17 0.26 0.26 94 1013.0
20260506081805 55 161 4.0 6.0 0.19 0.25 0.25 93 1013.0
20260506081302 55 116 5.0 8.0 0.24 0.23 0.23 94 1013.0
20260506080800 55 220 1.0 2.0 0.24 0.22 0.22 93 1013.0
20260506080256 55 182 1.0 2.0 0.19 0.19 0.19 93 1013.3
20260506073240 56 286 1.0 2.0 0.24 0.12 0.12 92 1013.3
20260506072737 56 138 0.0 1.0 0.00 0.08 0.08 92 1013.1
20260506072234 56 156 1.0 2.0 0.00 0.08 0.08 91 1012.7
20260506071732 56 149 5.0 7.0 0.00 0.08 0.08 90 1012.7
20260506071230 56 198 1.0 2.0 0.00 0.08 0.08 90 1012.7
20260506070727 56 135 2.0 2.0 0.00 0.08 0.08 90 1012.5
20260506070223 56 170 2.0 3.0 0.07 0.08 0.08 90 1013.0
20260506062200 58 114 4.0 8.0 0.00 0.00 0.00 82 1012.8
20260506061656 58 169 2.0 2.0 0.00 0.00 0.00 84 1012.7
20260506061154 58 127 2.0 3.0 0.00 0.00 0.00 84 1012.5
20260506060652 58 175 2.0 3.0 0.00 0.00 0.00 85 1012.3